Regional Weather Roundup
Issued by NWS Cleveland, OH

Home | Current Version | Previous Version | Text Only | Print | Product List | Glossary Off
Versions: 1 2 3 4 5 6 7 8 9 10 11 12 13 14 15 16 17 18 19 20 21 22 23 24 25 26 27 28 29 30 31 32 33 34 35 36 37 38 39 40 41 42 43 44 45 46 47 48 49 50

000
ASUS41 KCLE 261412
RWRCLE
OHIO REGIONAL WEATHER ROUNDUP
NATIONAL WEATHER SERVICE WILMINGTON, OH
1000 AM EDT MON SEP 26 2016

NOTE: "FAIR" INDICATES FEW OR NO CLOUDS BELOW 12,000 FEET WITH NO
SIGNIFICANT WEATHER AND/OR OBSTRUCTIONS TO VISIBILITY.

OHZ001>008-015>018-024>027-034-035-043-044-261500-
   NORTHWEST OHIO

CITY           SKY/WX    TMP DP  RH WIND       PRES   REMARKS
DEFIANCE       CLOUDY    62  57  83 SW7       29.98R
FINDLAY        LGT RAIN  61  57  87 S6        29.95F
TOLEDO EXPRESS CLOUDY    60  60 100 SW8       29.94R
TOLEDO EXEC    LGT RAIN  62  61  96 S7        29.94S FOG
LIMA           LGT RAIN  61  61 100 W9        29.99S FOG
$$

OHZ009>014-019>023-028>033-038-089-261500-
   NORTHEAST OHIO

CITY           SKY/WX    TMP DP  RH WIND       PRES   REMARKS
CLE-HOPKINS    LGT RAIN  63  56  78 SW10      29.96R
CLE-LAKEFRONT  RAIN      65  58  78 SW18G24   29.92R
CUY CO. ARPT   CLOUDY    68  57  68 SW12G17   29.92R
LORAIN-ELYRIA  RAIN      63  58  83 NW15G24   29.97R
ASHTABULA      CLOUDY    64  52  64 S13       29.91F
AKRON-CANTON   PTSUNNY   67  51  56 SW10      29.94S
WOOSTER        LGT RAIN  64  53  67 SW9       29.96R
MANSFIELD      CLOUDY    61  57  87 W9        30.00R
YOUNGSTOWN     CLOUDY    65  51  60 S13       29.94S
$$

OHZ042-051>053-060>062-070>072-077>081-261500-
  SOUTHWEST OHIO

CITY           SKY/WX    TMP DP  RH WIND       PRES   REMARKS
CINC-COVINGTON CLOUDY    65  58  78 NW13      30.04R
CINC-LUNKEN    PTSUNNY   67  57  70 N8        30.03S
HAMILTON       RAIN      62  58  86 CALM      30.04S FOG
DAYTON         LGT RAIN  61  58  90 CALM      30.02S
WRIGHT-PAT AFB CLOUDY    62  58  89 N1        30.00F
DAYTON GENERAL RAIN      62  56  80 N6        30.01F
WILMINGTON     CLOUDY    66  57  72 NW15G25   30.02R
$$

OHZ036-037-039>041-045>050-054>059-063>069-073>076-082>088-261500-
  CENTRAL AND SOUTHEAST OHIO

CITY           SKY/WX    TMP DP  RH WIND       PRES   REMARKS
COLUMBUS       CLOUDY    67  59  75 N15       29.99R
OSU AIRPORT    CLOUDY    65  55  70 NW15G25   30.00R
BOLTON FIELD   CLOUDY    64  55  72 NW15G22   30.01R
RICKENBACK AFB CLOUDY    66  61  84 NW18G28   29.99R
NEWARK         PTSUNNY   68  58  70 W6        29.97R
MARION         CLOUDY    62  55  77 NW10      30.01R
LANCASTER      CLOUDY    73  64  73 W13G29    29.98R
ZANESVILLE     FAIR      69  55  60 S10       29.96S
NEW PHILLY     PTSUNNY   68  55  63 SE5       29.96S
$$



USA.gov is the U.S. government's official web portal to all federal, state and local government web resources and services.